Spirit of St Louis, MO

12:13 AM CDT on May 24, 2017 (GMT -0500)
Spirit Of Saint Louis

Weather History for KSUS - August, 2014

Change the Weather History Date:

Sunday, August 24, 2014

  Actual Average Record
Temperature  
Mean Temperature 85 °F -  
Max Temperature 97 °F 85 °F 97 °F (1998)
Min Temperature 73 °F 63 °F 54 °F (2015)
Cooling Degree Days 20    
Growing Degree Days 35 (Base 50)    
Moisture  
Dew Point 73 °F    
Average Humidity 71    
Maximum Humidity 96    
Minimum Humidity 38    
Precipitation  
Precipitation 0.00 in - - ()
Sea Level Pressure  
Sea Level Pressure 29.90 in    
Wind  
Wind Speed 1 mph (SSE)    
Max Wind Speed 6 mph    
Max Gust Speed -    
Visibility 10 miles    
Events      
Averages and records for this station are not official NWS values.
T = Trace of Precipitation, MM = Missing Value Source: NWS Daily Summary

Daily Weather History Graph

Daily Weather History Graph

Search for Another Location

Airport or City:

Trip Planner

Search our weather history database for the weather conditions in past years. The results will help you decide how hot, cold, wet, or windy it might be!

Date:

Astronomy

Aug. 24, 2014 Rise Set
Actual Time 6:24 AM CDT 7:44 PM CDT
Civil Twilight 5:56 AM CDT 8:12 PM CDT
Nautical Twilight 5:23 AM CDT 8:45 PM CDT
Astronomical Twilight 4:48 AM CDT 9:19 PM CDT
Moon 5:35 AM CDT 7:03 PM CDT
Length of Visible Light 14h 15m
Length of Day
13h 19m
Waning Crescent, 1% of the Moon is Illuminated
Aug 24
Waning Crescent
Aug 25
New
Sep 2
First Quarter
Sep 8
Full
Sep 15
Last Quarter

Hourly Weather History & Observations

Time (CDT) Temp. Heat Index Dew Point Humidity Pressure Visibility Wind Dir Wind Speed Gust Speed Precip Events Conditions
12:54 AM 75.9 °F - 73.9 °F 94% 29.88 in 10.0 mi Calm Calm - N/A   Clear
1:54 AM 75.9 °F - 73.9 °F 94% 29.88 in 10.0 mi Calm Calm - N/A   Clear
2:54 AM 75.9 °F - 73.9 °F 94% 29.86 in 8.0 mi Calm Calm - N/A   Clear
3:54 AM 75.0 °F - 73.0 °F 94% 29.87 in 9.0 mi Calm Calm - N/A   Clear
4:54 AM 75.0 °F - 73.0 °F 94% 29.87 in 10.0 mi Calm Calm - N/A   Clear
5:54 AM 73.0 °F - 72.0 °F 96% 29.89 in 7.0 mi WSW 3.5 mph - N/A   Clear
6:54 AM 73.0 °F - 72.0 °F 96% 29.92 in 10.0 mi Calm Calm - N/A   Clear
7:54 AM 77.0 °F - 73.9 °F 90% 29.93 in 9.0 mi Calm Calm - N/A   Clear
8:54 AM 82.0 °F 87.9 °F 73.9 °F 76% 29.93 in 10.0 mi West 3.5 mph - N/A   Clear
9:54 AM 84.9 °F 91.4 °F 73.0 °F 67% 29.93 in 10.0 mi WSW 5.8 mph - N/A   Clear
10:54 AM 89.1 °F 98.0 °F 73.9 °F 61% 29.93 in 10.0 mi Calm Calm - N/A   Clear
11:54 AM 91.9 °F 99.5 °F 72.0 °F 52% 29.93 in 10.0 mi West 4.6 mph - N/A   Clear
12:54 PM 93.9 °F 100.8 °F 71.1 °F 47% 29.93 in 10.0 mi Calm Calm - N/A   Clear
1:54 PM 95.0 °F 101.3 °F 70.0 °F 44% 29.91 in 10.0 mi Variable 3.5 mph - N/A   Clear
2:54 PM 95.0 °F 101.3 °F 70.0 °F 44% 29.90 in 10.0 mi SE 4.6 mph - N/A   Partly Cloudy
3:54 PM 97.0 °F 102.8 °F 69.1 °F 40% 29.88 in 10.0 mi ENE 3.5 mph - N/A   Partly Cloudy
4:54 PM 96.1 °F 99.9 °F 66.9 °F 38% 29.87 in 10.0 mi Calm Calm - N/A   Partly Cloudy
5:54 PM 96.1 °F 102.9 °F 70.0 °F 43% 29.87 in 10.0 mi NNE 4.6 mph - N/A   Partly Cloudy
6:54 PM 91.0 °F 102.9 °F 75.9 °F 61% 29.87 in 10.0 mi ESE 3.5 mph - N/A   Partly Cloudy
7:54 PM 88.0 °F 97.5 °F 75.0 °F 65% 29.88 in 10.0 mi ESE 3.5 mph - N/A   Clear
8:54 PM 87.1 °F 97.3 °F 75.9 °F 69% 29.90 in 10.0 mi SE 4.6 mph - N/A   Clear
9:54 PM 84.9 °F 94.1 °F 75.9 °F 74% 29.91 in 10.0 mi North - - N/A   Clear
10:54 PM 84.9 °F 95.3 °F 77.0 °F 77% 29.92 in 10.0 mi SSE 4.6 mph - N/A   Clear
11:54 PM 80.1 °F 85.4 °F 75.9 °F 87% 29.94 in 10.0 mi Calm Calm - N/A   Clear